When you browse on this site, cookies collect data to enhance your experience and personalize the content and advertising you see.
Visit our Privacy Policy to learn more. By continuing to use the site, you agree to this use of cookies and data.
  • In Portugal
  • List of Countries
  • For 7 days
  • Water Temperature
  • Satellite Maps
  • Weather Map
  • Weather Widgets
  • user-avatar
    Login

    Hourly Weather Encamp

    Today, 22 May, Wednesday

    Time Temperature Precipitation Wind Pressure Humidity
    00:00 +5°C° 0 mm 1 mps 623 mmHg 94%
    01:00 +5°C° 0 mm 1 mps 622 mmHg 94%
    02:00 +4°C° 0 mm 1 mps 622 mmHg 94%
    03:00 +4°C° 0 mm 1 mps 622 mmHg 94%
    04:00 +5°C° 0 mm 1 mps 623 mmHg 91%
    05:00 +5°C° 0 mm 1 mps 623 mmHg 89%
    06:00 +6°C° 0 mm 1 mps 623 mmHg 86%
    07:00 +9°C° 0 mm 1 mps 624 mmHg 75%
    08:00 +11°C° 0 mm 1 mps 625 mmHg 63%
    09:00 +13°C° 0 mm 1 mps 626 mmHg 52%
    10:00 +14°C° 0 mm 1 mps 627 mmHg 50%
    11:00 +14°C° 0 mm 1 mps 627 mmHg 48%
    12:00 +15°C° 0 mm 1 mps 627 mmHg 46%
    13:00 +14°C° 0.2 mm 1 mps 626 mmHg 52%
    14:00 +13°C° 0.2 mm 1 mps 626 mmHg 57%
    15:00 +12°C° 0.2 mm 1 mps 625 mmHg 62%
    16:00 +12°C° 0.2 mm 1 mps 625 mmHg 65%
    17:00 +12°C° 0.2 mm 1 mps 625 mmHg 68%
    18:00 +11°C° 0.2 mm 1 mps 625 mmHg 71%
    19:00 +10°C° 0 mm 1 mps 624 mmHg 77%
    20:00 +8°C° 0 mm 1 mps 624 mmHg 83%
    21:00 +7°C° 0 mm 1 mps 624 mmHg 89%
    22:00 +6°C° 0 mm 1 mps 623 mmHg 89%
    23:00 +6°C° 0 mm 1 mps 623 mmHg 89%

    Tomorrow, 23 May, Thursday

    Time Temperature Precipitation Wind Pressure Humidity
    00:00 +6°C° 0 mm 1 mps 623 mmHg 89%
    01:00 +5°C° 0 mm 1 mps 623 mmHg 87%
    02:00 +5°C° 0 mm 1 mps 623 mmHg 85%
    03:00 +5°C° 0 mm 1 mps 623 mmHg 83%
    04:00 +6°C° 0 mm 1 mps 623 mmHg 79%
    05:00 +7°C° 0 mm 1 mps 624 mmHg 76%
    06:00 +9°C° 0 mm 1 mps 624 mmHg 72%
    07:00 +11°C° 0 mm 1 mps 625 mmHg 63%
    08:00 +14°C° 0 mm 1 mps 626 mmHg 53%
    09:00 +16°C° 0 mm 1 mps 627 mmHg 44%
    10:00 +18°C° 0 mm 1 mps 628 mmHg 41%
    11:00 +19°C° 0 mm 1 mps 628 mmHg 38%
    12:00 +20°C° 0 mm 1 mps 628 mmHg 36%
    13:00 +19°C° 0.1 mm 1 mps 627 mmHg 43%
    14:00 +16°C° 0.1 mm 1 mps 626 mmHg 49%
    15:00 +15°C° 0.1 mm 1 mps 625 mmHg 56%
    16:00 +14°C° 0.4 mm 1 mps 625 mmHg 64%
    17:00 +13°C° 0.4 mm 1 mps 625 mmHg 72%
    18:00 +12°C° 0.4 mm 1 mps 624 mmHg 79%
    19:00 +11°C° 1.1 mm 1 mps 624 mmHg 83%
    20:00 +10°C° 1.1 mm 1 mps 624 mmHg 86%
    21:00 +10°C° 1.1 mm 1 mps 624 mmHg 90%
    22:00 +9°C° 0.5 mm 1 mps 624 mmHg 90%
    23:00 +9°C° 0.5 mm 1 mps 624 mmHg 91%

    Day after tomorrow, 24 May, Friday

    Time Temperature Precipitation Wind Pressure Humidity
    00:00 +9°C° 0.5 mm 1 mps 623 mmHg 91%
    01:00 +9°C° 0.4 mm 1 mps 623 mmHg 91%
    02:00 +8°C° 0.4 mm 1 mps 623 mmHg 92%
    03:00 +7°C° 0.4 mm 0 mps 623 mmHg 92%
    04:00 +7°C° 0.5 mm 0 mps 623 mmHg 91%
    05:00 +8°C° 0.5 mm 0 mps 623 mmHg 90%
    06:00 +8°C° 0.5 mm 0 mps 623 mmHg 89%
    07:00 +10°C° 0.4 mm 1 mps 624 mmHg 85%
    08:00 +11°C° 0.4 mm 1 mps 624 mmHg 81%
    09:00 +12°C° 0.4 mm 1 mps 625 mmHg 77%
    10:00 +11°C° 1.8 mm 1 mps 624 mmHg 81%
    11:00 +10°C° 1.8 mm 1 mps 624 mmHg 86%
    12:00 +9°C° 1.8 mm 1 mps 624 mmHg 90%
    13:00 +9°C° 1.5 mm 1 mps 623 mmHg 91%
    14:00 +9°C° 1.5 mm 1 mps 623 mmHg 92%
    15:00 +8°C° 1.5 mm 2 mps 623 mmHg 93%
    16:00 +7°C° 1.2 mm 2 mps 623 mmHg 94%
    17:00 +7°C° 1.2 mm 2 mps 622 mmHg 94%
    18:00 +7°C° 1.2 mm 2 mps 622 mmHg 95%
    19:00 +7°C° 0.3 mm 2 mps 622 mmHg 95%
    20:00 +6°C° 0.3 mm 2 mps 623 mmHg 95%
    21:00 +6°C° 0.3 mm 2 mps 623 mmHg 95%
    22:00 +6°C° 0.1 mm 2 mps 623 mmHg 95%
    23:00 +6°C° 0.1 mm 2 mps 623 mmHg 95%

    25 May, Saturday

    Time Temperature Precipitation Wind Pressure Humidity
    00:00 +6°C° 0.1 mm 2 mps 623 mmHg 95%
    01:00 +6°C° 0.2 mm 2 mps 622 mmHg 95%
    02:00 +6°C° 0.2 mm 2 mps 622 mmHg 95%
    03:00 +6°C° 0.2 mm 2 mps 622 mmHg 95%
    04:00 +6°C° 0.5 mm 2 mps 623 mmHg 95%
    05:00 +6°C° 0.5 mm 2 mps 623 mmHg 95%
    06:00 +6°C° 0.5 mm 2 mps 623 mmHg 95%
    07:00 +6°C° 1.1 mm 2 mps 623 mmHg 94%
    08:00 +7°C° 1.1 mm 2 mps 623 mmHg 93%
    09:00 +7°C° 1.1 mm 2 mps 624 mmHg 92%
    10:00 +7°C° 0.8 mm 2 mps 624 mmHg 91%
    11:00 +7°C° 0.8 mm 2 mps 624 mmHg 89%
    12:00 +8°C° 0.8 mm 2 mps 624 mmHg 88%
    13:00 +8°C° 0.4 mm 3 mps 624 mmHg 85%
    14:00 +9°C° 0.4 mm 3 mps 624 mmHg 82%
    15:00 +9°C° 0.4 mm 3 mps 624 mmHg 80%
    16:00 +9°C° 0.2 mm 3 mps 624 mmHg 82%
    17:00 +8°C° 0.2 mm 3 mps 624 mmHg 84%
    18:00 +8°C° 0.2 mm 3 mps 624 mmHg 86%
    19:00 +7°C° 0 mm 3 mps 624 mmHg 88%
    20:00 +6°C° 0 mm 2 mps 624 mmHg 90%
    21:00 +5°C° 0 mm 2 mps 624 mmHg 92%
    22:00 +5°C° 0 mm 2 mps 624 mmHg 92%
    23:00 +5°C° 0 mm 2 mps 624 mmHg 93%

    26 May, Sunday

    Time Temperature Precipitation Wind Pressure Humidity
    00:00 +5°C° 0 mm 2 mps 624 mmHg 93%
    01:00 +5°C° 0 mm 2 mps 624 mmHg 93%
    02:00 +5°C° 0 mm 2 mps 624 mmHg 93%
    03:00 +5°C° 0 mm 2 mps 624 mmHg 92%
    04:00 +5°C° 0 mm 2 mps 624 mmHg 91%
    05:00 +6°C° 0 mm 2 mps 624 mmHg 89%
    06:00 +5°C° 0 mm 3 mps 625 mmHg 87%
    07:00 +7°C° 0 mm 3 mps 625 mmHg 83%
    08:00 +8°C° 0 mm 3 mps 626 mmHg 78%
    09:00 +10°C° 0 mm 3 mps 626 mmHg 73%
    10:00 +11°C° 0 mm 3 mps 626 mmHg 67%
    11:00 +12°C° 0 mm 3 mps 627 mmHg 62%
    12:00 +14°C° 0 mm 3 mps 627 mmHg 56%
    13:00 +14°C° 0 mm 3 mps 627 mmHg 57%
    14:00 +14°C° 0 mm 3 mps 626 mmHg 58%
    15:00 +14°C° 0 mm 4 mps 626 mmHg 58%
    16:00 +13°C° 0 mm 3 mps 625 mmHg 63%
    17:00 +12°C° 0 mm 3 mps 625 mmHg 68%
    18:00 +10°C° 0 mm 2 mps 625 mmHg 72%
    19:00 +9°C° 0 mm 2 mps 624 mmHg 79%
    20:00 +7°C° 0 mm 2 mps 624 mmHg 85%
    21:00 +6°C° 0 mm 2 mps 624 mmHg 91%
    22:00 +6°C° 0.1 mm 2 mps 624 mmHg 91%
    23:00 +7°C° 0.1 mm 2 mps 624 mmHg 92%

    27 May, Monday

    Time Temperature Precipitation Wind Pressure Humidity
    00:00 +7°C° 0.1 mm 3 mps 624 mmHg 92%
    01:00 +7°C° 0 mm 3 mps 624 mmHg 92%
    02:00 +7°C° 0 mm 3 mps 624 mmHg 91%
    03:00 +7°C° 0 mm 2 mps 624 mmHg 91%
    04:00 +7°C° 0 mm 2 mps 624 mmHg 89%
    05:00 +8°C° 0 mm 2 mps 624 mmHg 87%
    06:00 +8°C° 0 mm 2 mps 624 mmHg 86%
    07:00 +9°C° 0 mm 2 mps 625 mmHg 79%
    08:00 +12°C° 0 mm 2 mps 625 mmHg 72%
    09:00 +13°C° 0 mm 2 mps 626 mmHg 65%
    10:00 +15°C° 0 mm 2 mps 626 mmHg 59%
    11:00 +16°C° 0 mm 2 mps 626 mmHg 53%
    12:00 +17°C° 0 mm 2 mps 627 mmHg 47%
    13:00 +17°C° 0 mm 2 mps 626 mmHg 50%
    14:00 +17°C° 0 mm 2 mps 626 mmHg 53%
    15:00 +17°C° 0 mm 2 mps 626 mmHg 55%
    16:00 +15°C° 0 mm 2 mps 625 mmHg 62%
    17:00 +14°C° 0 mm 2 mps 625 mmHg 69%
    18:00 +13°C° 0 mm 2 mps 624 mmHg 76%
    19:00 +10°C° 0 mm 2 mps 624 mmHg 82%
    20:00 +8°C° 0 mm 2 mps 623 mmHg 87%
    21:00 +7°C° 0 mm 2 mps 623 mmHg 93%
    22:00 +6°C° 0 mm 2 mps 623 mmHg 92%
    23:00 +6°C° 0 mm 2 mps 622 mmHg 90%
    Show more